#datetime,building,power
2021-12-24T00:00:00,mfh,21.31
2021-12-24T00:01:00,mfh,20.93
2021-12-24T00:02:00,mfh,21.04
2021-12-24T00:03:00,mfh,21.16
2021-12-24T00:04:00,mfh,18.62
2021-12-24T00:05:00,mfh,18.69
2021-12-24T00:06:00,mfh,19.36
2021-12-24T00:07:00,mfh,19.81
2021-12-24T00:08:00,mfh,20.11
2021-12-24T00:09:00,mfh,20.17
2021-12-24T00:10:00,mfh,19.59
2021-12-24T00:11:00,mfh,19.48
2021-12-24T00:12:00,mfh,19.02
2021-12-24T00:13:00,mfh,18.71
2021-12-24T00:14:00,mfh,18.77
2021-12-24T00:15:00,mfh,18.90
2021-12-24T00:16:00,mfh,19.28
2021-12-24T00:17:00,mfh,19.18
2021-12-24T00:18:00,mfh,19.20
2021-12-24T00:19:00,mfh,19.09
2021-12-24T00:20:00,mfh,18.68
2021-12-24T00:21:00,mfh,18.35
2021-12-24T00:22:00,mfh,18.36
2021-12-24T00:23:00,mfh,18.52
2021-12-24T00:24:00,mfh,19.15
2021-12-24T00:25:00,mfh,19.21
2021-12-24T00:26:00,mfh,19.25
2021-12-24T00:27:00,mfh,19.27
2021-12-24T00:28:00,mfh,19.16
2021-12-24T00:29:00,mfh,18.57
2021-12-24T00:30:00,mfh,19.16
2021-12-24T00:31:00,mfh,18.68
2021-12-24T00:32:00,mfh,19.41
2021-12-24T00:33:00,mfh,19.25
2021-12-24T00:34:00,mfh,19.34
2021-12-24T00:35:00,mfh,19.38
2021-12-24T00:36:00,mfh,20.28
2021-12-24T00:37:00,mfh,20.65
2021-12-24T00:38:00,mfh,20.71
2021-12-24T00:39:00,mfh,20.63
2021-12-24T00:40:00,mfh,21.13
2021-12-24T00:41:00,mfh,21.13
2021-12-24T00:42:00,mfh,21.12
2021-12-24T00:43:00,mfh,21.11
2021-12-24T00:44:00,mfh,21.17
2021-12-24T00:45:00,mfh,20.91
2021-12-24T00:46:00,mfh,20.51
2021-12-24T00:47:00,mfh,20.71
2021-12-24T00:48:00,mfh,20.04
2021-12-24T00:49:00,mfh,20.79
2021-12-24T00:50:00,mfh,20.75
2021-12-24T00:51:00,mfh,20.90
2021-12-24T00:52:00,mfh,21.03
2021-12-24T00:53:00,mfh,20.24
2021-12-24T00:54:00,mfh,20.28
2021-12-24T00:55:00,mfh,20.56
2021-12-24T00:56:00,mfh,20.39
2021-12-24T00:57:00,mfh,20.96
2021-12-24T00:58:00,mfh,20.94
2021-12-24T00:59:00,mfh,20.99
2021-12-24T01:00:00,mfh,20.90
2021-12-24T01:01:00,mfh,20.84
2021-12-24T01:02:00,mfh,20.45
2021-12-24T01:03:00,mfh,20.30
2021-12-24T01:04:00,mfh,20.28
2021-12-24T01:05:00,mfh,21.20
2021-12-24T01:06:00,mfh,20.87
2021-12-24T01:07:00,mfh,18.83
2021-12-24T01:08:00,mfh,18.60
2021-12-24T01:09:00,mfh,18.77
2021-12-24T01:10:00,mfh,18.16
2021-12-24T01:11:00,mfh,18.45
2021-12-24T01:12:00,mfh,18.09
2021-12-24T01:13:00,mfh,18.13
2021-12-24T01:14:00,mfh,19.74
2021-12-24T01:15:00,mfh,18.89
2021-12-24T01:16:00,mfh,18.80
2021-12-24T01:17:00,mfh,18.81
2021-12-24T01:18:00,mfh,18.14
2021-12-24T01:19:00,mfh,18.13
2021-12-24T01:20:00,mfh,18.22
2021-12-24T01:21:00,mfh,18.16
2021-12-24T01:22:00,mfh,19.01
2021-12-24T01:23:00,mfh,19.13
2021-12-24T01:24:00,mfh,19.16
2021-12-24T01:25:00,mfh,19.11
2021-12-24T01:26:00,mfh,18.66
2021-12-24T01:27:00,mfh,18.55
2021-12-24T01:28:00,mfh,18.33
2021-12-24T01:29:00,mfh,18.31
2021-12-24T01:30:00,mfh,18.92
2021-12-24T01:31:00,mfh,19.31
2021-12-24T01:32:00,mfh,19.01
2021-12-24T01:33:00,mfh,19.04
2021-12-24T01:34:00,mfh,18.92
2021-12-24T01:35:00,mfh,18.24
2021-12-24T01:36:00,mfh,18.13
2021-12-24T01:37:00,mfh,18.37
2021-12-24T01:38:00,mfh,18.55
2021-12-24T01:39:00,mfh,21.01
2021-12-24T01:40:00,mfh,21.14
2021-12-24T01:41:00,mfh,20.96
2021-12-24T01:42:00,mfh,20.86
2021-12-24T01:43:00,mfh,21.06
2021-12-24T01:44:00,mfh,20.41
2021-12-24T01:45:00,mfh,20.40
2021-12-24T01:46:00,mfh,20.25
2021-12-24T01:47:00,mfh,21.03
2021-12-24T01:48:00,mfh,21.46
2021-12-24T01:49:00,mfh,21.08
2021-12-24T01:50:00,mfh,21.66
2021-12-24T01:51:00,mfh,22.23
2021-12-24T01:52:00,mfh,20.90
2021-12-24T01:53:00,mfh,21.04
2021-12-24T01:54:00,mfh,20.14
2021-12-24T01:55:00,mfh,20.65
2021-12-24T01:56:00,mfh,20.74
2021-12-24T01:57:00,mfh,20.77
2021-12-24T01:58:00,mfh,20.84
2021-12-24T01:59:00,mfh,20.80
2021-12-24T02:00:00,mfh,20.10
2021-12-24T02:01:00,mfh,20.27
2021-12-24T02:02:00,mfh,20.20
2021-12-24T02:03:00,mfh,20.11
2021-12-24T02:04:00,mfh,20.79
2021-12-24T02:05:00,mfh,20.89
2021-12-24T02:06:00,mfh,21.55
2021-12-24T02:07:00,mfh,20.85
2021-12-24T02:08:00,mfh,20.87
2021-12-24T02:09:00,mfh,18.28
2021-12-24T02:10:00,mfh,18.22
2021-12-24T02:11:00,mfh,18.20
2021-12-24T02:12:00,mfh,18.21
2021-12-24T02:13:00,mfh,18.85
2021-12-24T02:14:00,mfh,18.70
2021-12-24T02:15:00,mfh,18.68
2021-12-24T02:16:00,mfh,20.26
2021-12-24T02:17:00,mfh,19.60
2021-12-24T02:18:00,mfh,20.33
2021-12-24T02:19:00,mfh,19.76
2021-12-24T02:20:00,mfh,20.87
2021-12-24T02:21:00,mfh,18.63
2021-12-24T02:22:00,mfh,19.36
2021-12-24T02:23:00,mfh,19.51
2021-12-24T02:24:00,mfh,18.91
2021-12-24T02:25:00,mfh,18.20
2021-12-24T02:26:00,mfh,18.41
2021-12-24T02:27:00,mfh,18.30
2021-12-24T02:28:00,mfh,18.51
2021-12-24T02:29:00,mfh,19.02
2021-12-24T02:30:00,mfh,19.10
2021-12-24T02:31:00,mfh,19.10
2021-12-24T02:32:00,mfh,19.06
2021-12-24T02:33:00,mfh,19.12
2021-12-24T02:34:00,mfh,18.52
2021-12-24T02:35:00,mfh,18.35
2021-12-24T02:36:00,mfh,18.18
2021-12-24T02:37:00,mfh,19.42
2021-12-24T02:38:00,mfh,18.96
2021-12-24T02:39:00,mfh,18.71
2021-12-24T02:40:00,mfh,18.89
2021-12-24T02:41:00,mfh,19.02
2021-12-24T02:42:00,mfh,20.36
2021-12-24T02:43:00,mfh,20.66
2021-12-24T02:44:00,mfh,20.24
2021-12-24T02:45:00,mfh,20.68
2021-12-24T02:46:00,mfh,20.83
2021-12-24T02:47:00,mfh,20.82
2021-12-24T02:48:00,mfh,20.85
2021-12-24T02:49:00,mfh,20.83
2021-12-24T02:50:00,mfh,20.20
2021-12-24T02:51:00,mfh,20.14
2021-12-24T02:52:00,mfh,20.13
2021-12-24T02:53:00,mfh,20.12
2021-12-24T02:54:00,mfh,20.78
2021-12-24T02:55:00,mfh,22.02
2021-12-24T02:56:00,mfh,21.43
2021-12-24T02:57:00,mfh,20.83
2021-12-24T02:58:00,mfh,21.05
2021-12-24T02:59:00,mfh,20.37
2021-12-24T03:00:00,mfh,20.21
2021-12-24T03:01:00,mfh,20.09
2021-12-24T03:02:00,mfh,20.91
2021-12-24T03:03:00,mfh,20.99
2021-12-24T03:04:00,mfh,20.91
2021-12-24T03:05:00,mfh,20.82
2021-12-24T03:06:00,mfh,20.69
2021-12-24T03:07:00,mfh,20.01
2021-12-24T03:08:00,mfh,20.17
2021-12-24T03:09:00,mfh,20.24
2021-12-24T03:10:00,mfh,20.14
2021-12-24T03:11:00,mfh,18.64
2021-12-24T03:12:00,mfh,18.59
2021-12-24T03:13:00,mfh,18.73
2021-12-24T03:14:00,mfh,18.83
2021-12-24T03:15:00,mfh,18.96
2021-12-24T03:16:00,mfh,18.14
2021-12-24T03:17:00,mfh,18.01
2021-12-24T03:18:00,mfh,18.16
2021-12-24T03:19:00,mfh,18.82
2021-12-24T03:20:00,mfh,18.78
2021-12-24T03:21:00,mfh,18.76
2021-12-24T03:22:00,mfh,19.08
2021-12-24T03:23:00,mfh,18.60
2021-12-24T03:24:00,mfh,18.04
2021-12-24T03:25:00,mfh,18.07
2021-12-24T03:26:00,mfh,18.73
2021-12-24T03:27:00,mfh,18.97
2021-12-24T03:28:00,mfh,18.93
2021-12-24T03:29:00,mfh,19.01
2021-12-24T03:30:00,mfh,18.95
2021-12-24T03:31:00,mfh,18.87
2021-12-24T03:32:00,mfh,18.08
2021-12-24T03:33:00,mfh,18.21
2021-12-24T03:34:00,mfh,18.08
2021-12-24T03:35:00,mfh,18.10
2021-12-24T03:36:00,mfh,18.90
2021-12-24T03:37:00,mfh,18.77
2021-12-24T03:38:00,mfh,19.55
2021-12-24T03:39:00,mfh,18.81
2021-12-24T03:40:00,mfh,17.93
2021-12-24T03:41:00,mfh,17.97
2021-12-24T03:42:00,mfh,17.86
2021-12-24T03:43:00,mfh,17.81
2021-12-24T03:44:00,mfh,20.52
2021-12-24T03:45:00,mfh,20.44
2021-12-24T03:46:00,mfh,20.38
2021-12-24T03:47:00,mfh,20.34
2021-12-24T03:48:00,mfh,20.82
2021-12-24T03:49:00,mfh,21.98
2021-12-24T03:50:00,mfh,20.91
2021-12-24T03:51:00,mfh,20.91
2021-12-24T03:52:00,mfh,20.87
2021-12-24T03:53:00,mfh,21.38
2021-12-24T03:54:00,mfh,20.66
2021-12-24T03:55:00,mfh,20.53
2021-12-24T03:56:00,mfh,19.91
2021-12-24T03:57:00,mfh,19.83
2021-12-24T03:58:00,mfh,19.85
2021-12-24T03:59:00,mfh,19.89
2021-12-24T04:00:00,mfh,19.79
2021-12-24T04:01:00,mfh,20.48
2021-12-24T04:02:00,mfh,20.46
2021-12-24T04:03:00,mfh,21.21
2021-12-24T04:04:00,mfh,20.60
2021-12-24T04:05:00,mfh,20.49
2021-12-24T04:06:00,mfh,19.88
2021-12-24T04:07:00,mfh,19.64
2021-12-24T04:08:00,mfh,19.77
2021-12-24T04:09:00,mfh,20.48
2021-12-24T04:10:00,mfh,20.60
2021-12-24T04:11:00,mfh,20.86
2021-12-24T04:12:00,mfh,21.29
2021-12-24T04:13:00,mfh,18.27
2021-12-24T04:14:00,mfh,18.09
2021-12-24T04:15:00,mfh,18.41
2021-12-24T04:16:00,mfh,18.30
2021-12-24T04:17:00,mfh,18.88
2021-12-24T04:18:00,mfh,19.57
2021-12-24T04:19:00,mfh,19.08
2021-12-24T04:20:00,mfh,19.00
2021-12-24T04:21:00,mfh,18.32
2021-12-24T04:22:00,mfh,18.18
2021-12-24T04:23:00,mfh,18.18
2021-12-24T04:24:00,mfh,18.19
2021-12-24T04:25:00,mfh,18.83
2021-12-24T04:26:00,mfh,18.83
2021-12-24T04:27:00,mfh,18.86
2021-12-24T04:28:00,mfh,19.38
2021-12-24T04:29:00,mfh,19.20
2021-12-24T04:30:00,mfh,18.30
2021-12-24T04:31:00,mfh,18.34
2021-12-24T04:32:00,mfh,18.48
2021-12-24T04:33:00,mfh,19.75
2021-12-24T04:34:00,mfh,19.09
2021-12-24T04:35:00,mfh,19.20
2021-12-24T04:36:00,mfh,19.09
2021-12-24T04:37:00,mfh,18.95
2021-12-24T04:38:00,mfh,18.64
2021-12-24T04:39:00,mfh,18.54
2021-12-24T04:40:00,mfh,18.44
2021-12-24T04:41:00,mfh,18.41
2021-12-24T04:42:00,mfh,18.90
2021-12-24T04:43:00,mfh,19.58
2021-12-24T04:44:00,mfh,18.89
2021-12-24T04:45:00,mfh,20.11
2021-12-24T04:46:00,mfh,19.97
2021-12-24T04:47:00,mfh,19.88
2021-12-24T04:48:00,mfh,19.80
2021-12-24T04:49:00,mfh,19.81
2021-12-24T04:50:00,mfh,20.37
2021-12-24T04:51:00,mfh,20.45
2021-12-24T04:52:00,mfh,20.39
2021-12-24T04:53:00,mfh,20.81
2021-12-24T04:54:00,mfh,20.71
2021-12-24T04:55:00,mfh,20.20
2021-12-24T04:56:00,mfh,20.75
2021-12-24T04:57:00,mfh,20.30
2021-12-24T04:58:00,mfh,20.10
2021-12-24T04:59:00,mfh,20.65
2021-12-24T05:00:00,mfh,20.44
2021-12-24T05:01:00,mfh,20.53
2021-12-24T05:02:00,mfh,20.48
2021-12-24T05:03:00,mfh,20.57
2021-12-24T05:04:00,mfh,20.08
2021-12-24T05:05:00,mfh,20.02
2021-12-24T05:06:00,mfh,20.17
2021-12-24T05:07:00,mfh,21.21
2021-12-24T05:08:00,mfh,20.85
2021-12-24T05:09:00,mfh,20.66
2021-12-24T05:10:00,mfh,20.68
2021-12-24T05:11:00,mfh,20.81
2021-12-24T05:12:00,mfh,20.04
2021-12-24T05:13:00,mfh,19.89
2021-12-24T05:14:00,mfh,20.16
2021-12-24T05:15:00,mfh,20.23
2021-12-24T05:16:00,mfh,18.80
2021-12-24T05:17:00,mfh,18.87
2021-12-24T05:18:00,mfh,19.03
2021-12-24T05:19:00,mfh,19.23
2021-12-24T05:20:00,mfh,18.42
2021-12-24T05:21:00,mfh,18.23
2021-12-24T05:22:00,mfh,18.15
2021-12-24T05:23:00,mfh,18.22
2021-12-24T05:24:00,mfh,18.84
2021-12-24T05:25:00,mfh,18.95
2021-12-24T05:26:00,mfh,18.91
2021-12-24T05:27:00,mfh,18.85
2021-12-24T05:28:00,mfh,18.90
2021-12-24T05:29:00,mfh,19.27
2021-12-24T05:30:00,mfh,18.30
2021-12-24T05:31:00,mfh,18.35
2021-12-24T05:32:00,mfh,18.80
2021-12-24T05:33:00,mfh,18.83
2021-12-24T05:34:00,mfh,18.95
2021-12-24T05:35:00,mfh,18.53
2021-12-24T05:36:00,mfh,18.65
2021-12-24T05:37:00,mfh,17.96
2021-12-24T05:38:00,mfh,18.07
2021-12-24T05:39:00,mfh,17.93
2021-12-24T05:40:00,mfh,18.51
2021-12-24T05:41:00,mfh,18.61
2021-12-24T05:42:00,mfh,18.71
2021-12-24T05:43:00,mfh,19.52
2021-12-24T05:44:00,mfh,18.87
2021-12-24T05:45:00,mfh,18.23
2021-12-24T05:46:00,mfh,18.03
2021-12-24T05:47:00,mfh,18.21
2021-12-24T05:48:00,mfh,18.30
2021-12-24T05:49:00,mfh,21.60
2021-12-24T05:50:00,mfh,21.78
2021-12-24T05:51:00,mfh,21.88
2021-12-24T05:52:00,mfh,21.98
2021-12-24T05:53:00,mfh,20.58
2021-12-24T05:54:00,mfh,20.48
2021-12-24T05:55:00,mfh,20.41
2021-12-24T05:56:00,mfh,20.45
2021-12-24T05:57:00,mfh,21.12
2021-12-24T05:58:00,mfh,20.98
2021-12-24T05:59:00,mfh,22.39
2021-12-24T06:00:00,mfh,21.49
2021-12-24T06:01:00,mfh,20.82
2021-12-24T06:02:00,mfh,20.07
2021-12-24T06:03:00,mfh,19.99
2021-12-24T06:04:00,mfh,20.19
2021-12-24T06:05:00,mfh,20.07
2021-12-24T06:06:00,mfh,21.24
2021-12-24T06:07:00,mfh,20.84
2021-12-24T06:08:00,mfh,21.00
2021-12-24T06:09:00,mfh,21.24
2021-12-24T06:10:00,mfh,20.57
2021-12-24T06:11:00,mfh,20.39
2021-12-24T06:12:00,mfh,19.93
2021-12-24T06:13:00,mfh,19.99
2021-12-24T06:14:00,mfh,20.69
2021-12-24T06:15:00,mfh,20.67
2021-12-24T06:16:00,mfh,20.75
2021-12-24T06:17:00,mfh,21.27
2021-12-24T06:18:00,mfh,18.63
2021-12-24T06:19:00,mfh,18.73
2021-12-24T06:20:00,mfh,19.06
2021-12-24T06:21:00,mfh,19.34
2021-12-24T06:22:00,mfh,19.39
2021-12-24T06:23:00,mfh,19.29
2021-12-24T06:24:00,mfh,19.25
2021-12-24T06:25:00,mfh,19.92
2021-12-24T06:26:00,mfh,19.28
2021-12-24T06:27:00,mfh,18.62
2021-12-24T06:28:00,mfh,18.54
2021-12-24T06:29:00,mfh,18.46
2021-12-24T06:30:00,mfh,18.67
2021-12-24T06:31:00,mfh,19.29
2021-12-24T06:32:00,mfh,19.40
2021-12-24T06:33:00,mfh,19.34
2021-12-24T06:34:00,mfh,19.59
2021-12-24T06:35:00,mfh,19.02
2021-12-24T06:36:00,mfh,18.50
2021-12-24T06:37:00,mfh,18.49
2021-12-24T06:38:00,mfh,18.48
2021-12-24T06:39:00,mfh,19.29
2021-12-24T06:40:00,mfh,19.31
2021-12-24T06:41:00,mfh,19.28
2021-12-24T06:42:00,mfh,19.23
2021-12-24T06:43:00,mfh,19.31
2021-12-24T06:44:00,mfh,18.62
2021-12-24T06:45:00,mfh,18.62
2021-12-24T06:46:00,mfh,18.89
2021-12-24T06:47:00,mfh,19.22
2021-12-24T06:48:00,mfh,19.12
2021-12-24T06:49:00,mfh,19.28
2021-12-24T06:50:00,mfh,19.14
2021-12-24T06:51:00,mfh,22.35
2021-12-24T06:52:00,mfh,20.75
2021-12-24T06:53:00,mfh,20.66
2021-12-24T06:54:00,mfh,20.83
2021-12-24T06:55:00,mfh,21.37
2021-12-24T06:56:00,mfh,21.13
2021-12-24T06:57:00,mfh,21.31
2021-12-24T06:58:00,mfh,21.28
2021-12-24T06:59:00,mfh,21.34
2021-12-24T07:00:00,mfh,20.57
2021-12-24T07:01:00,mfh,32.11
2021-12-24T07:02:00,mfh,32.06
2021-12-24T07:03:00,mfh,31.95
2021-12-24T07:04:00,mfh,32.76
2021-12-24T07:05:00,mfh,32.70
2021-12-24T07:06:00,mfh,32.81
2021-12-24T07:07:00,mfh,33.03
2021-12-24T07:08:00,mfh,32.08
2021-12-24T07:09:00,mfh,32.01
2021-12-24T07:10:00,mfh,32.12
2021-12-24T07:11:00,mfh,32.09
2021-12-24T07:12:00,mfh,32.91
2021-12-24T07:13:00,mfh,32.97
2021-12-24T07:14:00,mfh,33.55
2021-12-24T07:15:00,mfh,32.93
2021-12-24T07:16:00,mfh,33.77
2021-12-24T07:17:00,mfh,32.17
2021-12-24T07:18:00,mfh,31.55
2021-12-24T07:19:00,mfh,31.65
2021-12-24T07:20:00,mfh,30.25
2021-12-24T07:21:00,mfh,30.92
2021-12-24T07:22:00,mfh,30.98
2021-12-24T07:23:00,mfh,30.29
2021-12-24T07:24:00,mfh,29.77
2021-12-24T07:25:00,mfh,29.79
2021-12-24T07:26:00,mfh,29.94
2021-12-24T07:27:00,mfh,29.69
2021-12-24T07:28:00,mfh,30.24
2021-12-24T07:29:00,mfh,30.60
2021-12-24T07:30:00,mfh,30.16
2021-12-24T07:31:00,mfh,30.82
2021-12-24T07:32:00,mfh,30.76
2021-12-24T07:33:00,mfh,30.20
2021-12-24T07:34:00,mfh,30.60
2021-12-24T07:35:00,mfh,30.56
2021-12-24T07:36:00,mfh,29.62
2021-12-24T07:37:00,mfh,30.38
2021-12-24T07:38:00,mfh,30.05
2021-12-24T07:39:00,mfh,29.95
2021-12-24T07:40:00,mfh,30.00
2021-12-24T07:41:00,mfh,29.47
2021-12-24T07:42:00,mfh,29.53
2021-12-24T07:43:00,mfh,29.40
2021-12-24T07:44:00,mfh,29.87
2021-12-24T07:45:00,mfh,30.74
2021-12-24T07:46:00,mfh,29.51
2021-12-24T07:47:00,mfh,30.03
2021-12-24T07:48:00,mfh,29.57
2021-12-24T07:49:00,mfh,29.41
2021-12-24T07:50:00,mfh,30.03
2021-12-24T07:51:00,mfh,29.98
2021-12-24T07:52:00,mfh,30.16
2021-12-24T07:53:00,mfh,30.17
2021-12-24T07:54:00,mfh,31.36
2021-12-24T07:55:00,mfh,31.55
2021-12-24T07:56:00,mfh,31.62
2021-12-24T07:57:00,mfh,31.67
2021-12-24T07:58:00,mfh,32.18
2021-12-24T07:59:00,mfh,32.23
2021-12-24T08:00:00,mfh,32.15
2021-12-24T08:01:00,mfh,32.02
2021-12-24T08:02:00,mfh,31.95
2021-12-24T08:03:00,mfh,31.30
2021-12-24T08:04:00,mfh,31.17
2021-12-24T08:05:00,mfh,31.37
2021-12-24T08:06:00,mfh,31.13
2021-12-24T08:07:00,mfh,32.17
2021-12-24T08:08:00,mfh,31.87
2021-12-24T08:09:00,mfh,31.98
2021-12-24T08:10:00,mfh,32.02
2021-12-24T08:11:00,mfh,32.00
2021-12-24T08:12:00,mfh,31.22
2021-12-24T08:13:00,mfh,31.36
2021-12-24T08:14:00,mfh,31.32
2021-12-24T08:15:00,mfh,31.85
2021-12-24T08:16:00,mfh,32.19
2021-12-24T08:17:00,mfh,32.02
2021-12-24T08:18:00,mfh,32.07
2021-12-24T08:19:00,mfh,31.31
2021-12-24T08:20:00,mfh,32.20
2021-12-24T08:21:00,mfh,31.41
2021-12-24T08:22:00,mfh,31.16
2021-12-24T08:23:00,mfh,30.79
2021-12-24T08:24:00,mfh,30.11
2021-12-24T08:25:00,mfh,30.20
2021-12-24T08:26:00,mfh,30.36
2021-12-24T08:27:00,mfh,29.59
2021-12-24T08:28:00,mfh,29.48
2021-12-24T08:29:00,mfh,29.56
2021-12-24T08:30:00,mfh,29.79
2021-12-24T08:31:00,mfh,29.67
2021-12-24T08:32:00,mfh,30.14
2021-12-24T08:33:00,mfh,30.02
2021-12-24T08:34:00,mfh,30.08
2021-12-24T08:35:00,mfh,30.09
2021-12-24T08:36:00,mfh,29.57
2021-12-24T08:37:00,mfh,29.69
2021-12-24T08:38:00,mfh,30.81
2021-12-24T08:39:00,mfh,29.86
2021-12-24T08:40:00,mfh,30.52
2021-12-24T08:41:00,mfh,30.59
2021-12-24T08:42:00,mfh,30.55
2021-12-24T08:43:00,mfh,30.34
2021-12-24T08:44:00,mfh,29.59
2021-12-24T08:45:00,mfh,30.03
2021-12-24T08:46:00,mfh,29.63
2021-12-24T08:47:00,mfh,29.65
2021-12-24T08:48:00,mfh,31.44
2021-12-24T08:49:00,mfh,29.54
2021-12-24T08:50:00,mfh,29.50
2021-12-24T08:51:00,mfh,29.64
2021-12-24T08:52:00,mfh,29.70
2021-12-24T08:53:00,mfh,30.27
2021-12-24T08:54:00,mfh,30.22
2021-12-24T08:55:00,mfh,30.12
2021-12-24T08:56:00,mfh,30.25
2021-12-24T08:57:00,mfh,30.22
2021-12-24T08:58:00,mfh,29.57
2021-12-24T08:59:00,mfh,31.47
2021-12-24T09:00:00,mfh,31.78
2021-12-24T09:01:00,mfh,31.70
2021-12-24T09:02:00,mfh,32.47
2021-12-24T09:03:00,mfh,33.24
2021-12-24T09:04:00,mfh,32.43
2021-12-24T09:05:00,mfh,32.05
2021-12-24T09:06:00,mfh,31.42
2021-12-24T09:07:00,mfh,31.62
2021-12-24T09:08:00,mfh,32.02
2021-12-24T09:09:00,mfh,32.05
2021-12-24T09:10:00,mfh,32.76
2021-12-24T09:11:00,mfh,33.27
2021-12-24T09:12:00,mfh,32.04
2021-12-24T09:13:00,mfh,31.85
2021-12-24T09:14:00,mfh,31.37
2021-12-24T09:15:00,mfh,31.33
2021-12-24T09:16:00,mfh,31.33
2021-12-24T09:17:00,mfh,31.35
2021-12-24T09:18:00,mfh,31.85
2021-12-24T09:19:00,mfh,31.73
2021-12-24T09:20:00,mfh,33.30
2021-12-24T09:21:00,mfh,32.76
2021-12-24T09:22:00,mfh,32.31
2021-12-24T09:23:00,mfh,44.71
2021-12-24T09:24:00,mfh,51.65
2021-12-24T09:25:00,mfh,59.64
2021-12-24T09:26:00,mfh,59.64
2021-12-24T09:27:00,mfh,60.73
2021-12-24T09:28:00,mfh,60.50
2021-12-24T09:29:00,mfh,60.87
2021-12-24T09:30:00,mfh,60.56
2021-12-24T09:31:00,mfh,60.25
2021-12-24T09:32:00,mfh,59.85
2021-12-24T09:33:00,mfh,59.84
2021-12-24T09:34:00,mfh,53.74
2021-12-24T09:35:00,mfh,45.15
2021-12-24T09:36:00,mfh,45.71
2021-12-24T09:37:00,mfh,45.26
2021-12-24T09:38:00,mfh,45.81
2021-12-24T09:39:00,mfh,36.48
2021-12-24T09:40:00,mfh,37.75
2021-12-24T09:41:00,mfh,37.55
2021-12-24T09:42:00,mfh,31.59
2021-12-24T09:43:00,mfh,31.48
2021-12-24T09:44:00,mfh,31.09
2021-12-24T09:45:00,mfh,31.10
2021-12-24T09:46:00,mfh,32.29
2021-12-24T09:47:00,mfh,31.55
2021-12-24T09:48:00,mfh,31.54
2021-12-24T09:49:00,mfh,30.32
2021-12-24T09:50:00,mfh,30.54
2021-12-24T09:51:00,mfh,31.08
2021-12-24T09:52:00,mfh,30.97
2021-12-24T09:53:00,mfh,32.20
2021-12-24T09:54:00,mfh,32.27
2021-12-24T09:55:00,mfh,32.26
2021-12-24T09:56:00,mfh,32.05
2021-12-24T09:57:00,mfh,32.01
2021-12-24T09:58:00,mfh,31.59
2021-12-24T09:59:00,mfh,31.00
2021-12-24T10:00:00,mfh,32.51
2021-12-24T10:01:00,mfh,31.19
2021-12-24T10:02:00,mfh,32.17
2021-12-24T10:03:00,mfh,36.88
2021-12-24T10:04:00,mfh,32.65
2021-12-24T10:05:00,mfh,32.80
2021-12-24T10:06:00,mfh,32.65
2021-12-24T10:07:00,mfh,32.53
2021-12-24T10:08:00,mfh,33.01
2021-12-24T10:09:00,mfh,33.24
2021-12-24T10:10:00,mfh,32.83
2021-12-24T10:11:00,mfh,32.77
2021-12-24T10:12:00,mfh,32.73
2021-12-24T10:13:00,mfh,32.09
2021-12-24T10:14:00,mfh,32.36
2021-12-24T10:15:00,mfh,32.24
2021-12-24T10:16:00,mfh,33.05
2021-12-24T10:17:00,mfh,32.96
2021-12-24T10:18:00,mfh,33.99
2021-12-24T10:19:00,mfh,32.76
2021-12-24T10:20:00,mfh,32.22
2021-12-24T10:21:00,mfh,32.20
2021-12-24T10:22:00,mfh,32.29
2021-12-24T10:23:00,mfh,32.28
2021-12-24T10:24:00,mfh,32.25
2021-12-24T10:25:00,mfh,32.79
2021-12-24T10:26:00,mfh,32.80
2021-12-24T10:27:00,mfh,33.09
2021-12-24T10:28:00,mfh,33.06
2021-12-24T10:29:00,mfh,30.67
2021-12-24T10:30:00,mfh,30.75
2021-12-24T10:31:00,mfh,30.70
2021-12-24T10:32:00,mfh,31.22
2021-12-24T10:33:00,mfh,31.22
2021-12-24T10:34:00,mfh,30.81
2021-12-24T10:35:00,mfh,31.06
2021-12-24T10:36:00,mfh,31.21
2021-12-24T10:37:00,mfh,30.55
2021-12-24T10:38:00,mfh,29.58
2021-12-24T10:39:00,mfh,29.78
2021-12-24T10:40:00,mfh,29.69
2021-12-24T10:41:00,mfh,30.40
2021-12-24T10:42:00,mfh,30.41
2021-12-24T10:43:00,mfh,30.39
2021-12-24T10:44:00,mfh,30.89
2021-12-24T10:45:00,mfh,30.50
2021-12-24T10:46:00,mfh,30.53
2021-12-24T10:47:00,mfh,30.27
2021-12-24T10:48:00,mfh,30.33
2021-12-24T10:49:00,mfh,30.35
2021-12-24T10:50:00,mfh,30.39
2021-12-24T10:51:00,mfh,30.21
2021-12-24T10:52:00,mfh,31.05
2021-12-24T10:53:00,mfh,30.39
2021-12-24T10:54:00,mfh,29.69
2021-12-24T10:55:00,mfh,29.71
2021-12-24T10:56:00,mfh,29.51
2021-12-24T10:57:00,mfh,29.64
2021-12-24T10:58:00,mfh,30.00
2021-12-24T10:59:00,mfh,30.04
2021-12-24T11:00:00,mfh,29.95
2021-12-24T11:01:00,mfh,30.12
2021-12-24T11:02:00,mfh,29.72
2021-12-24T11:03:00,mfh,29.54
2021-12-24T11:04:00,mfh,29.54
2021-12-24T11:05:00,mfh,30.22
2021-12-24T11:06:00,mfh,30.29
2021-12-24T11:07:00,mfh,30.28
2021-12-24T11:08:00,mfh,30.35
2021-12-24T11:09:00,mfh,32.37
2021-12-24T11:10:00,mfh,31.62
2021-12-24T11:11:00,mfh,31.57
2021-12-24T11:12:00,mfh,31.80
2021-12-24T11:13:00,mfh,31.60
2021-12-24T11:14:00,mfh,32.06
2021-12-24T11:15:00,mfh,32.21
2021-12-24T11:16:00,mfh,32.74
2021-12-24T11:17:00,mfh,32.40
2021-12-24T11:18:00,mfh,31.45
2021-12-24T11:19:00,mfh,31.42
2021-12-24T11:20:00,mfh,31.43
2021-12-24T11:21:00,mfh,31.68
2021-12-24T11:22:00,mfh,31.50
2021-12-24T11:23:00,mfh,32.17
2021-12-24T11:24:00,mfh,32.17
2021-12-24T11:25:00,mfh,32.23
2021-12-24T11:26:00,mfh,32.17
2021-12-24T11:27:00,mfh,31.61
2021-12-24T11:28:00,mfh,31.69
2021-12-24T11:29:00,mfh,31.87
2021-12-24T11:30:00,mfh,32.31
2021-12-24T11:31:00,mfh,32.35
2021-12-24T11:32:00,mfh,32.38
2021-12-24T11:33:00,mfh,31.09
2021-12-24T11:34:00,mfh,30.32
2021-12-24T11:35:00,mfh,29.84
2021-12-24T11:36:00,mfh,29.81
2021-12-24T11:37:00,mfh,29.82
2021-12-24T11:38:00,mfh,29.53
2021-12-24T11:39:00,mfh,30.44
2021-12-24T11:40:00,mfh,30.24
2021-12-24T11:41:00,mfh,29.97
2021-12-24T11:42:00,mfh,30.13
2021-12-24T11:43:00,mfh,29.35
2021-12-24T11:44:00,mfh,29.48
2021-12-24T11:45:00,mfh,29.21
2021-12-24T11:46:00,mfh,29.22
2021-12-24T11:47:00,mfh,29.23
2021-12-24T11:48:00,mfh,30.39
2021-12-24T11:49:00,mfh,30.14
2021-12-24T11:50:00,mfh,30.15
2021-12-24T11:51:00,mfh,30.22
2021-12-24T11:52:00,mfh,29.52
2021-12-24T11:53:00,mfh,29.52
2021-12-24T11:54:00,mfh,29.47
2021-12-24T11:55:00,mfh,29.85
2021-12-24T11:56:00,mfh,30.17
2021-12-24T11:57:00,mfh,30.04
2021-12-24T11:58:00,mfh,30.59
2021-12-24T11:59:00,mfh,30.86
2021-12-24T12:00:00,mfh,29.39
2021-12-24T12:01:00,mfh,29.27
2021-12-24T12:02:00,mfh,30.16
2021-12-24T12:03:00,mfh,29.44
2021-12-24T12:04:00,mfh,29.85
2021-12-24T12:05:00,mfh,30.07
2021-12-24T12:06:00,mfh,29.97
2021-12-24T12:07:00,mfh,30.14
2021-12-24T12:08:00,mfh,29.19
2021-12-24T12:09:00,mfh,29.31
2021-12-24T12:10:00,mfh,29.42
2021-12-24T12:11:00,mfh,29.49
2021-12-24T12:12:00,mfh,30.11
2021-12-24T12:13:00,mfh,30.00
2021-12-24T12:14:00,mfh,30.03
2021-12-24T12:15:00,mfh,29.94
2021-12-24T12:16:00,mfh,32.12
2021-12-24T12:17:00,mfh,31.43
2021-12-24T12:18:00,mfh,32.97
2021-12-24T12:19:00,mfh,32.87
2021-12-24T12:20:00,mfh,34.32
2021-12-24T12:21:00,mfh,33.69
2021-12-24T12:22:00,mfh,34.59
2021-12-24T12:23:00,mfh,33.04
2021-12-24T12:24:00,mfh,33.06
2021-12-24T12:25:00,mfh,32.19
2021-12-24T12:26:00,mfh,32.47
2021-12-24T12:27:00,mfh,31.23
2021-12-24T12:28:00,mfh,31.78
2021-12-24T12:29:00,mfh,31.77
2021-12-24T12:30:00,mfh,31.93
2021-12-24T12:31:00,mfh,32.07
2021-12-24T12:32:00,mfh,32.10
2021-12-24T12:33:00,mfh,31.96
2021-12-24T12:34:00,mfh,31.83
2021-12-24T12:35:00,mfh,31.29
2021-12-24T12:36:00,mfh,31.38
2021-12-24T12:37:00,mfh,32.72
2021-12-24T12:38:00,mfh,32.15
2021-12-24T12:39:00,mfh,30.17
2021-12-24T12:40:00,mfh,30.30
2021-12-24T12:41:00,mfh,29.41
2021-12-24T12:42:00,mfh,29.57
2021-12-24T12:43:00,mfh,29.66
2021-12-24T12:44:00,mfh,29.73
2021-12-24T12:45:00,mfh,31.17
2021-12-24T12:46:00,mfh,30.50
2021-12-24T12:47:00,mfh,30.54
2021-12-24T12:48:00,mfh,30.39
2021-12-24T12:49:00,mfh,30.29
2021-12-24T12:50:00,mfh,30.40
2021-12-24T12:51:00,mfh,29.77
2021-12-24T12:52:00,mfh,29.52
2021-12-24T12:53:00,mfh,29.57
2021-12-24T12:54:00,mfh,30.57
2021-12-24T12:55:00,mfh,30.21
2021-12-24T12:56:00,mfh,30.30
2021-12-24T12:57:00,mfh,30.56
2021-12-24T12:58:00,mfh,29.51
2021-12-24T12:59:00,mfh,29.84
2021-12-24T13:00:00,mfh,29.81
2021-12-24T13:01:00,mfh,29.60
2021-12-24T13:02:00,mfh,29.93
2021-12-24T13:03:00,mfh,30.13
2021-12-24T13:04:00,mfh,29.94
2021-12-24T13:05:00,mfh,29.96
2021-12-24T13:06:00,mfh,29.15
2021-12-24T13:07:00,mfh,29.19
2021-12-24T13:08:00,mfh,30.27
2021-12-24T13:09:00,mfh,30.54
2021-12-24T13:10:00,mfh,31.09
2021-12-24T13:11:00,mfh,31.00
2021-12-24T13:12:00,mfh,31.11
2021-12-24T13:13:00,mfh,30.60
2021-12-24T13:14:00,mfh,30.79
2021-12-24T13:15:00,mfh,29.30
2021-12-24T13:16:00,mfh,29.22
2021-12-24T13:17:00,mfh,29.44
2021-12-24T13:18:00,mfh,29.81